Lincoln, NE

2:08 PM CDT on May 22, 2017 (GMT -0500)
Lincoln Municipal

Weather History for KLNK - September, 2011

Change the Weather History Date:

Sunday, September 25, 2011

  Actual Average Record
Temperature  
Mean Temperature 53 °F 62 °F  
Max Temperature 69 °F 75 °F 93 °F (1990)
Min Temperature 37 °F 49 °F 29 °F (1975)
Degree Days  
Heating Degree Days 12 5  
Month to date heating degree days 135 62  
Since 1 July heating degree days 135 68  
Cooling Degree Days 0 2  
Month to date cooling degree days 59 114  
Year to date cooling degree days 1258 1149  
Growing Degree Days 2 (Base 50)    
Moisture  
Dew Point 41 °F    
Average Humidity 69    
Maximum Humidity 100    
Minimum Humidity 37    
Precipitation  
Precipitation 0.00 in 0.09 in 2.32 in (1934)
Month to date precipitation 1.33 2.59  
Year to date precipitation 25.00 24.17  
Snow  
Snow 0.00 in 0.00 in - ()
Month to date snowfall 0.0 0.0  
Since 1 July snowfall 0.0 0.0  
Snow Depth 0.00 in    
Sea Level Pressure  
Sea Level Pressure 29.95 in    
Wind  
Wind Speed 4 mph (NNE)    
Max Wind Speed 13 mph    
Max Gust Speed 15 mph    
Visibility 10 miles    
Events      
T = Trace of Precipitation, MM = Missing Value Source: NWS Daily Summary

Daily Weather History Graph

Daily Weather History Graph

Search for Another Location

Airport or City:

Trip Planner

Search our weather history database for the weather conditions in past years. The results will help you decide how hot, cold, wet, or windy it might be!

Date:

Astronomy

Sep. 25, 2011 Rise Set
Actual Time 7:17 AM CDT 7:19 PM CDT
Civil Twilight 6:49 AM CDT 7:46 PM CDT
Nautical Twilight 6:17 AM CDT 8:18 PM CDT
Astronomical Twilight 5:45 AM CDT 8:51 PM CDT
Moon 5:05 AM CDT (9/25) 6:01 PM CDT (9/25)
Length of Visible Light 12h 56m
Length of Day
12h 02m
Waning Crescent, 5% of the Moon is Illuminated
Sep 25
Waning Crescent
Sep 27
New
Oct 3
First Quarter
Oct 11
Full
Oct 19
Last Quarter

Hourly Weather History & Observations

Time (CDT) Temp. Windchill Dew Point Humidity Pressure Visibility Wind Dir Wind Speed Gust Speed Precip Events Conditions
12:54 AM 51.1 °F - 42.1 °F 71% 29.96 in 10.0 mi Calm Calm - N/A   Clear
1:54 AM 44.1 °F 41.5 °F 39.9 °F 85% 29.96 in 10.0 mi North 4.6 mph - N/A   Clear
2:54 AM 44.1 °F 41.5 °F 39.9 °F 85% 29.97 in 10.0 mi North 4.6 mph - N/A   Clear
3:54 AM 43.0 °F 39.5 °F 39.9 °F 89% 29.97 in 10.0 mi North 5.8 mph - N/A   Clear
4:54 AM 42.1 °F 39.2 °F 39.9 °F 92% 29.97 in 10.0 mi North 4.6 mph - N/A   Clear
5:54 AM 37.9 °F 33.5 °F 37.0 °F 97% 29.98 in 10.0 mi North 5.8 mph - N/A   Clear
6:54 AM 37.9 °F 33.5 °F 37.0 °F 97% 29.99 in 10.0 mi North 5.8 mph - N/A   Clear
7:54 AM 41.0 °F 38.0 °F 39.2 °F 93% 30.00 in 10.0 mi North 4.6 mph - N/A   Clear
8:54 AM 48.0 °F - 42.1 °F 80% 30.00 in 10.0 mi Calm Calm - N/A   Clear
9:54 AM 53.6 °F - 44.6 °F 72% 30.00 in 10.0 mi NW 3.5 mph - N/A   Clear
10:54 AM 57.9 °F - 45.0 °F 62% 30.00 in 10.0 mi Variable 3.5 mph - N/A   Clear
11:54 AM 62.1 °F - 43.0 °F 50% 29.98 in 10.0 mi East 5.8 mph - N/A   Clear
12:54 PM 64.4 °F - 42.8 °F 45% 29.96 in 10.0 mi Calm Calm - N/A   Clear
1:54 PM 66.0 °F - 41.0 °F 40% 29.93 in 10.0 mi NE 4.6 mph - N/A   Clear
2:54 PM 66.9 °F - 39.9 °F 37% 29.91 in 10.0 mi Variable 4.6 mph - N/A   Clear
3:54 PM 68.0 °F - 41.0 °F 37% 29.90 in 10.0 mi ENE 5.8 mph - N/A   Mostly Cloudy
4:54 PM 66.9 °F - 41.0 °F 39% 29.89 in 10.0 mi Variable 3.5 mph - N/A   Partly Cloudy
5:54 PM 66.0 °F - 39.9 °F 38% 29.90 in 10.0 mi ESE 6.9 mph - N/A   Clear
6:54 PM 60.8 °F - 42.8 °F 52% 29.90 in 10.0 mi ENE 6.9 mph - N/A   Clear
7:54 PM 59.0 °F - 41.0 °F 51% 29.91 in 10.0 mi East 3.5 mph - N/A   Clear
8:54 PM 55.0 °F - 43.0 °F 64% 29.92 in 10.0 mi Calm Calm - N/A   Clear
9:54 PM 52.0 °F - 44.1 °F 74% 29.92 in 10.0 mi Calm Calm - N/A   Clear
10:54 PM 46.0 °F - 41.0 °F 83% 29.92 in 10.0 mi Calm Calm - N/A   Clear
11:54 PM 48.9 °F - 42.1 °F 77% 29.92 in 10.0 mi West 3.5 mph - N/A   Clear